This is the latest recevied weather packets stored in our database for station/object N7WSS. If no packets are shown the sender has not sent any weather packets the latest 10 day(s).
| Time | Temp. | Humidity | Pressure | Rain* | Wind** | Luminosity | Snow |
|---|---|---|---|---|---|---|---|
| 1787668195 | 30.56° C | 43% | 1015.5 hPa | 0 mm | - | - | - |
| 1787667890 | 29.44° C | 44% | 1015.5 hPa | 0 mm | - | - | - |
| 1787667585 | 30° C | 43% | 1015.6 hPa | 0 mm | - | - | - |
| 1787667282 | 30° C | 43% | 1015.6 hPa | 0 mm | - | - | - |
| 1787666981 | 29.44° C | 43% | 1015.5 hPa | 0 mm | - | - | - |
| 1787666677 | 28.33° C | 45% | 1015.5 hPa | 0 mm | - | - | - |
| 1787666376 | 27.78° C | 46% | 1015.5 hPa | 0 mm | - | - | - |
| 1787666073 | 26.67° C | 49% | 1015.4 hPa | 0 mm | - | - | - |
| 1787665772 | 26.67° C | 49% | 1015.4 hPa | 0 mm | - | - | - |
| 1787665467 | 25.56° C | 51% | 1015.3 hPa | 0 mm | - | - | - |
| 1787665167 | 25.56° C | 50% | 1015.2 hPa | 0 mm | - | - | - |
| 1787664866 | 25° C | 52% | 1015.3 hPa | 0 mm | - | - | - |
| 1787664565 | 25° C | 51% | 1015.5 hPa | 0 mm | - | - | - |
| 1787664261 | 25° C | 52% | 1015.2 hPa | 0 mm | - | - | - |
| 1787663959 | 24.44° C | 52% | 1015.2 hPa | 0 mm | - | - | - |
| 1787663654 | 24.44° C | 52% | 1015.2 hPa | 0 mm | - | - | - |
| 1787663350 | 24.44° C | 51% | 1015 hPa | 0 mm | - | - | - |
| 1787663046 | 24.44° C | 51% | 1014.8 hPa | 0 mm | - | - | - |
| 1787662746 | 24.44° C | 51% | 1014.9 hPa | 0 mm | - | - | - |
| 1787662441 | 24.44° C | 51% | 1014.8 hPa | 0 mm | - | - | - |
| 1787662136 | 24.44° C | 51% | 1015 hPa | 0 mm | - | - | - |
| 1787661833 | 24.44° C | 51% | 1014.8 hPa | 0 mm | - | - | - |
| 1787661531 | 24.44° C | 51% | 1014.7 hPa | 0 mm | - | - | - |
| 1787661230 | 23.89° C | 52% | 1015 hPa | 0 mm | - | - | - |
| 1787660929 | 23.89° C | 53% | 1014.8 hPa | 0 mm | - | - | - |
* Rain latest hour (hover to see other rain measurements)
** Current wind speed in m/s (hover to see current wind gust speed)